Powrót do katalogu

USA 475

AktywnyMilitariaVLEO
NORAD 62544·PAYLOAD·🇺🇸 United States

Wystrzelony Jan 10, 2025 z Vandenberg Space Force Base

Loading…

Następne Przeloty (najbliższe 24 godziny)

TLE

NieaktualneSource: Mike McCants

Epoka: Sep 1, 2026, 02:02 UTC

1 62544U 25005N   26244.08535275 0.00000000  00000-0  00000-0 0    09
2 62544  70.0256 226.3749 0003000 188.7218 171.2782 14.96713454    06

Śledź USA 475 w czasie rzeczywistym z AllMySat

Download on the App Store